Regional Weather Roundup
Issued by NWS

Home | Current Version | Previous Version | Graphics & Text | Print | Product List | Glossary Off
Versions: 1 2 3 4 5 6 7 8 9 10 11 12 13 14 15 16 17 18 19 20 21 22 23 24 25 26 27 28 29 30 31 32 33 34 35 36 37 38 39 40 41 42 43 44 45 46 47 48 49 50

000
ASUS43 KMKX 050900
RWRWI

WISCONSIN REGIONAL WEATHER ROUNDUP
NATIONAL WEATHER SERVICE MILWAUKEE/SULLIVAN WI
300 AM CST THU MAR 05 2015

NOTE: "FAIR" INDICATES FEW OR NO CLOUDS BELOW 12,000 FEET WITH NO
SIGNIFICANT WEATHER AND/OR OBSTRUCTIONS TO VISIBILITY.

WIZ001-002-006>008-014>016-023>028-051000-
NORTHWEST WISCONSIN

CITY           SKY/WX    TMP DP  RH WIND       PRES   REMARKS
SUPERIOR ARPT  CLEAR    -11 -18  72 SW5       30.42F WCI -23
ASHLAND        CLEAR     -9 -17  68 SW8       30.38S WCI -25
HAYWARD        CLEAR    -21 -28  70 CALM      30.35S
SIREN          CLEAR    -17 -22  77 CALM      30.41S
CUMBERLAND     CLEAR    -15 -24  64 W6        30.37R WCI -29
RICE LAKE      CLEAR    -15 -20  76 CALM      30.40S
CHETEK         CLEAR    -14 -17  83 CALM      30.39S
LADYSMITH      CLEAR    -15 -21  74 CALM      30.37S
EAU CLAIRE     NOT AVBL
MENOMONIE      CLEAR     -4 -15  61 W6        30.43R WCI -17
NEW RICHMOND   CLEAR    -10 -18  68 CALM      30.42S
OSCEOLA        CLEAR    -15 -20  78 CALM      30.46S
$$

WIZ003>005-009-010-017-018-051000-
NORTH CENTRAL WISCONSIN

CITY           SKY/WX    TMP DP  RH WIND       PRES   REMARKS
MANITOWISH WTR CLEAR    -15 -21  76 CALM      30.26R
ARBOR VITAE    CLEAR    -11 -18  73 CALM      30.27R
WOODRUFF       CLEAR    -11 -18  73 CALM      30.27R
RHINELANDER    CLEAR    -14 -20  74 W3        30.27S
EAGLE RIVER    CLEAR    -16 -23  72 CALM      30.25S
LAND O LAKES   MOCLDY   -21 -27  72 CALM      30.25S
PHILLIPS       CLEAR    -20 -25  78 CALM      30.29S
TOMAHAWK       CLEAR    -18 -24  73 CALM      30.30S
MEDFORD        CLEAR    -12 -18  74 CALM      30.31S
MERRILL        CLEAR    -14 -18  82 CALM      30.32F
$$

WIZ029-030-035-036-043>047-051000-
CENTRAL WISCONSIN

CITY           SKY/WX    TMP DP  RH WIND       PRES   REMARKS
WAUSAU         CLEAR     -6 -14  68 NW6       30.32F WCI -19
MOSINEE        CLEAR     -6 -13  71 W6        30.34F WCI -18
MARSHFIELD     CLEAR     -7 -15  68 NW7       30.33F WCI -21
STEVENS POINT  CLEAR    -13 -19  73 CALM      30.35F
WAUPACA        CLEAR     -3 -12  64 W3        30.38S
WAUTOMA        NOT AVBL
WISC RAPIDS    CLEAR     -4 -15  59 NW6       30.37F WCI -16
CAMP DOUGLAS   NOT AVBL
$$

WIZ011>013-019>022-031-037>040-048>050-051000-
NORTHEAST WISCONSIN

CITY           SKY/WX    TMP DP  RH WIND       PRES   REMARKS
ANTIGO         CLEAR    -11 -15  82 CALM      30.29F
SHAWANO        CLEAR     -2 -12  62 CALM      30.37S
OCONTO         CLEAR    -12 -17  79 CALM      30.37F
STURGEON BAY   CLEAR     -2 -13  60 W5        30.36S WCI -12
GREEN BAY      CLEAR     -7 -15  68 NW8       30.37S WCI -23
MANITOWOC      NOT AVBL
APPLETON       CLEAR      0 -15  50 NW7       30.36S WCI -13
CLINTONVILLE   CLEAR     -6 -15  65 W3        30.37S
OSHKOSH        CLEAR     -1 -11  62 NW6       30.36F WCI -13
$$

WIZ032>034-041-042-053>061-051000-
SOUTHWEST WISCONSIN

CITY           SKY/WX    TMP DP  RH WIND       PRES   REMARKS
LA CROSSE      CLEAR     -1  -9  68 CALM      30.43F
SPARTA         CLEAR     -8 -14  76 CALM      30.42S
VIROQUA        CLEAR     -4 -10  73 NW5       30.35S WCI -14
BOSCOBEL       CLEAR     -5 -11  75 CALM      30.43S
PRAIRIE DU CHI CLEAR     -1 -10  64 W8        30.44S WCI -15
PLATTEVILLE    CLEAR      0  -7  71 NW6       30.37S WCI -11
$$

WIZ056-057-062-063-064-067-068-051000-
SOUTH CENTRAL WISCONSIN

CITY           SKY/WX    TMP DP  RH WIND       PRES   REMARKS
REEDSBURG      CLEAR      0  -9  66 NW3       30.38F
BARABOO/DELLS  CLEAR     -1 -12  59 CALM      30.37F
LONE ROCK      NOT AVBL
MINERAL POINT  CLEAR      1  -8  66 NW5       30.34S WCI  -8
MADISON        CLEAR      1  -9  62 N5        30.36F WCI  -9
MIDDLETON      CLEAR      3  -9  56 N5        30.38R WCI  -6
WATERTOWN      FAIR       3  -8  59 NW5       30.36S WCI  -6
MONROE         PTCLDY     3  -4  72 NW9       30.33F WCI -11
JANESVILLE     PTCLDY     1  -8  66 NW3       30.36F
$$

WIZ051-052-058>065-066-070>072-051000-
SOUTHEAST WISCONSIN

CITY           SKY/WX    TMP DP  RH WIND       PRES   REMARKS
MILWAUKEE      MOCLDY     7  -9  48 N9        30.36S WCI  -7
WAUKESHA       PTCLDY     3  -9  55 NW6       30.35S WCI  -8
MILWAUKEE/TIMM PTCLDY     5  -9  51 NW7       30.36F WCI  -7
RACINE         PTCLDY     5  -9  52 NW6       30.36F WCI  -6
BURLINGTON     PTCLDY    -4 -13  66 NW3       30.35S
KENOSHA        PTCLDY     4  -9  55 NW6       30.35S WCI  -7
FOND DU LAC    FLURRIES   0 -11  59 NW6       30.36F WCI -12
SHEBOYGAN      PTCLDY     1 -11  57 NW5       30.36S WCI  -9
WEST BEND      PTCLDY     1 -11  55 NW3       30.35S
JUNEAU         CLEAR      1  -9  63 NW5       30.36F WCI  -9
$$

LSZ147-162-051000-
LAKE SUPERIOR

STATION/POSITION TIME  TEMP    WIND        PRES    WAVE
                       AIR SEA DIR/SP/G            HT/PER
                 (UTC) (F)     (DEG/KT/KT) (MB)    (FT/S)
DEVILS ISLAND    0800    6     290/  9/ 11 1030.1R
PORT WING        0800   -5     210/  8/ 10 1029.5
SAXON HARBOR     0800   -4     210/  7/ 10 1028.8R
$$

LMZ867-665-643>646-051000-
LAKE MICHIGAN

STATION/POSITION TIME  TEMP    WIND        PRES    WAVE
                       AIR SEA DIR/SP/G            HT/PER
                 (UTC) (F)     (DEG/KT/KT) (MB)    (FT/S)
NORTHPORT PIER   0813    1     270/  8/ 13 1027.8S
KEWAUNEE LAKESHO 0800   -2     300/  5/  6 1027.6
SHEBOYGAN LAKESH 0800    6     320/  9/ 11 1030.1F
PORT WASHINGTON  0840    5     300/  5/  7 1029.5R
MILWAUKEE LAKESH 0800    9     330/  9/ 12   N/A
KENOSHA   LAKESH 0800    7     300/  9/ 11 1028.1S
$$

TC  - TEMPERATURE IN CELSIUS
VSB - VISIBILITY IN STATUTE MILES
WCI - WIND CHILL INDEX
HX  - HEAT INDEX



USA.gov is the U.S. government's official web portal to all federal, state and local government web resources and services.